Weather History for Provo, UT

Change the Weather History Date:

Tuesday, July 2, 2013

  Actual Average Record
Temperature  
Mean Temperature 81 °F -  
Max Temperature 96 °F 87 °F 100 °F (2001)
Min Temperature 66 °F 55 °F 44 °F (1992)
Cooling Degree Days 16    
Growing Degree Days 31 (Base 50)    
Moisture  
Dew Point 49 °F    
Average Humidity 35    
Maximum Humidity 52    
Minimum Humidity 19    
Precipitation  
Precipitation 0.00 in - - ()
Sea Level Pressure  
Sea Level Pressure 30.07 in    
Wind  
Wind Speed 5 mph (NW)    
Max Wind Speed 28 mph    
Max Gust Speed 23 mph    
Visibility 12 miles    
Events      
Averages and records for this station are not official NWS values.
T = Trace of Precipitation, MM = Missing Value Source: NWS Daily Summary

Daily Weather History Graph

Daily Weather History Graph

Search for Another Location

Airport:

Trip Planner

Search our weather history database for the weather conditions in past years. The results will help you decide how hot, cold, wet, or windy it might be!

Date:

Astronomy

Jul. 02, 2013 Rise Set
Actual Time 6:01 AM MDT 9:00 PM MDT
Civil Twilight 5:28 AM MDT 9:32 PM MDT
Nautical Twilight 4:47 AM MDT 10:14 PM MDT
Astronomical Twilight 3:58 AM MDT 11:02 PM MDT
Moon 2:06 AM MDT (7/2) 4:17 PM MDT (7/2)
Length of Visible Light 16h 03m
Length of Day
14h 58m
Waning Crescent, 26% of the Moon is Illuminated
Jul 2
Waning Crescent
Jul 8
New
Jul 15
First Quarter
Jul 22
Full
Jul 29
Last Quarter

Hourly Weather History & Observations

Time (MDT) Temp. Heat Index Dew Point Humidity Pressure Visibility Wind Dir Wind Speed Gust Speed Precip Events Conditions
12:15 AM 78.8 °F - 48.2 °F 34% 30.08 in 10.0 mi Calm Calm - N/A   Clear
12:35 AM 80.6 °F - 46.4 °F 30% 30.08 in 10.0 mi WSW 4.6 mph - N/A   Clear
12:55 AM 77.0 °F - 51.8 °F 41% 30.08 in 10.0 mi Calm Calm - N/A   Clear
1:35 AM 75.2 °F - 51.8 °F 44% 30.08 in 10.0 mi SE 5.8 mph - N/A   Clear
1:55 AM 75.2 °F - 53.6 °F 47% 30.09 in 10.0 mi South 4.6 mph - N/A   Clear
2:15 AM 77.0 °F - 50.0 °F 39% 30.09 in 10.0 mi South 10.4 mph - N/A   Clear
2:35 AM 75.2 °F - 50.0 °F 41% 30.09 in 10.0 mi South 8.1 mph - N/A   Clear
2:55 AM 75.2 °F - 48.2 °F 38% 30.09 in 10.0 mi SSW 6.9 mph - N/A   Clear
3:15 AM 73.4 °F - 46.4 °F 38% 30.09 in 10.0 mi South 3.5 mph - N/A   Clear
3:35 AM 69.8 °F - 50.0 °F 49% 30.09 in 10.0 mi East 3.5 mph - N/A   Clear
3:55 AM 69.8 °F - 48.2 °F 46% 30.09 in 10.0 mi Calm Calm - N/A   Clear
4:15 AM 69.8 °F - 50.0 °F 49% 30.09 in 10.0 mi Calm Calm - N/A   Clear
4:35 AM 69.8 °F - 48.2 °F 46% 30.10 in 10.0 mi ESE 4.6 mph - N/A   Clear
4:55 AM 68.0 °F - 50.0 °F 52% 30.10 in 10.0 mi Calm Calm - N/A   Clear
5:15 AM 66.2 °F - 48.2 °F 52% 30.11 in 10.0 mi Calm Calm - N/A   Clear
5:35 AM 71.6 °F - 50.0 °F 46% 30.11 in 10.0 mi NNE 5.8 mph - N/A   Clear
5:55 AM 71.6 °F - 46.4 °F 41% 30.11 in 10.0 mi North 8.1 mph - N/A   Clear
6:15 AM 73.4 °F - 44.6 °F 36% 30.12 in 10.0 mi North 6.9 mph - N/A   Clear
6:35 AM 73.4 °F - 44.6 °F 36% 30.12 in 10.0 mi Calm Calm - N/A   Clear
6:52 AM 71.6 °F - 42.8 °F 35% 30.12 in 15.0 mi Calm Calm - N/A   Scattered Clouds
8:55 AM 80.6 °F - 50.0 °F 34% 30.14 in 15.0 mi Calm Calm - N/A   Partly Cloudy
9:47 AM 82.4 °F 81.4 °F 53.6 °F 37% 30.14 in 15.0 mi Calm Calm - N/A   Partly Cloudy
10:53 AM 87.8 °F - 51.8 °F 29% 30.14 in 15.0 mi ENE 8.1 mph - N/A   Partly Cloudy
11:49 AM 89.6 °F - 44.6 °F 21% 30.13 in 15.0 mi West 5.8 mph - N/A   Partly Cloudy
12:48 PM 91.4 °F - 48.2 °F 23% 30.12 in 15.0 mi WSW 5.8 mph - N/A   Partly Cloudy
1:51 PM 91.4 °F - 51.8 °F 26% 30.09 in 15.0 mi WSW 5.8 mph - N/A   Partly Cloudy
2:50 PM 96.8 °F - 48.2 °F 19% 30.07 in 15.0 mi WNW 11.5 mph - N/A   Partly Cloudy
3:50 PM 96.8 °F 95.1 °F 55.4 °F 25% 30.05 in 15.0 mi WNW 16.1 mph - N/A   Partly Cloudy
4:50 PM 96.8 °F 94.4 °F 53.6 °F 23% 30.02 in 15.0 mi NW 16.1 mph - N/A   Partly Cloudy
5:50 PM 96.8 °F - 51.8 °F 22% 30.00 in 15.0 mi NW 27.6 mph - N/A   Partly Cloudy
6:50 PM 95.0 °F - 51.8 °F 23% 29.99 in 15.0 mi NW 16.1 mph 23.0 mph N/A   Partly Cloudy
7:50 PM 89.6 °F 87.3 °F 53.6 °F 29% 29.99 in 15.0 mi NW 16.1 mph - N/A   Scattered Clouds
8:50 PM 89.6 °F - 46.4 °F 22% 29.99 in 15.0 mi NW 13.8 mph - N/A   Mostly Cloudy
9:15 PM 89.6 °F - 44.6 °F 21% 29.99 in 10.0 mi NNW 15.0 mph 21.9 mph N/A   Clear
9:35 PM 87.8 °F - 44.6 °F 22% 30.00 in 10.0 mi NNW 15.0 mph 19.6 mph N/A   Clear
10:15 PM 84.2 °F 82.8 °F 53.6 °F 35% 30.02 in 10.0 mi North 8.1 mph - N/A   Clear
10:35 PM 84.2 °F - 48.2 °F 29% 30.02 in 10.0 mi NNW 8.1 mph - N/A   Clear
10:55 PM 82.4 °F - 46.4 °F 28% 30.02 in 10.0 mi North 6.9 mph - N/A   Clear
11:15 PM 78.8 °F - 46.4 °F 32% 30.02 in 10.0 mi SE 9.2 mph - N/A   Clear
11:35 PM 77.0 °F - 50.0 °F 39% 30.02 in 10.0 mi Calm Calm - N/A   Clear
11:55 PM 75.2 °F - 51.8 °F 44% 30.03 in 10.0 mi North 10.4 mph 19.6 mph N/A   Clear